Terminal Aerodrome Forecast
Issued by NWS Paducah, KY

Home | Current Version | Previous Version | Text Only | Print | Product List | Glossary On
Versions: 1 2 3 4 5 6 7 8 9 10 11 12 13 14 15
000
FTUS43 KPAH 252320
TAFEVV
TAF
KEVV 252320Z 2600/2624 VRB03KT P6SM SCT100
     FM260700 31009KT P6SM VCSH SCT035 BKN060
     FM261600 30007KT P6SM FEW035=

USA.gov is the U.S. government's official web portal to all federal, state and local government web resources and services.